AO-07 1 07530U 74089B 26129.78783889 -.00000039 00000-0 46247-4 0 9991 2 07530 101.9919 142.6320 0012105 202.7419 343.1823 12.53697412355703 UO-11 1 14781U 84021B 26129.82733596 .00000808 00000-0 88019-4 0 9995 2 14781 97.8035 95.8400 0006524 320.9559 39.1187 14.90692150251410 AO-27 1 22825U 93061C 26129.75135025 .00000060 00000-0 39785-4 0 9998 2 22825 98.6893 197.1751 0007876 205.9924 154.0864 14.30931657701504 FO-29 1 24278U 96046B 26129.56849309 -.00000049 00000-0 -13601-4 0 9992 2 24278 98.5282 343.7217 0349560 196.4979 162.4550 13.53272294467949 GO-32 1 25397U 98043D 26129.85209595 .00000044 00000-0 39382-4 0 9990 2 25397 99.0062 121.6461 0001172 19.3513 340.7710 14.24420772445871 ISS 1 25544U 98067A 26129.81209009 .00006662 00000-0 12821-3 0 9996 2 25544 51.6310 130.0607 0007453 41.4864 318.6689 15.49164784565805 NO-44 1 26931U 01043C 26129.81398807 .00000076 00000-0 59378-4 0 9992 2 26931 67.0516 343.5231 0006325 263.7293 96.3089 14.31941011284955 SO-50 1 27607U 02058C 26129.71773911 .00000829 00000-0 11538-3 0 9993 2 27607 64.5524 247.9994 0075627 269.4960 89.7480 14.82964946258753 CO-55 1 27844U 03031E 26129.75168404 .00000222 00000-0 11498-3 0 9999 2 27844 98.6748 138.7930 0008440 301.1656 58.8695 14.24311593186209 RS-22 1 27939U 03042A 26129.85278575 .00001064 00000-0 17237-3 0 9990 2 27939 98.3475 313.1310 0012050 35.7507 75.7690 14.73401159209904 CO-65 1 32785U 08021C 26129.86142697 .00003241 00000-0 20854-3 0 9991 2 32785 97.8265 110.4999 0009870 148.9599 211.2214 15.09089607979414 CO-66 1 32791U 08021J 26129.73091919 .00013331 00000-0 44126-3 0 9993 2 32791 97.7531 125.8363 0005087 90.8822 269.3001 15.31444489981409 RS-30 1 32953U 08025A 26129.79090288 -.00000004 00000-0 -10110-3 0 9992 2 32953 82.5069 19.3237 0020413 37.1095 323.1391 12.43177930814927 SRMSAT 1 37841U 11058D 26129.75875236 .00000383 00000-0 64140-4 0 9994 2 37841 19.9729 292.0727 0011744 140.9492 247.2806 14.11567137752387 ZACUBE-1 1 39417U 13066B 26129.87672515 .00003496 00000-0 27449-3 0 9992 2 39417 97.8123 92.0065 0042321 22.1026 338.2010 15.00890447674982 Delfi-N3xt 1 39428U 13066N 26129.75589260 .00005204 00000-0 45997-3 0 9992 2 39428 97.8337 50.1147 0074505 335.9914 23.7838 14.94644002668889 GOMX-1 1 39430U 13066Q 26129.84681088 .00001455 00000-0 22516-3 0 9992 2 39430 97.6511 332.7266 0128237 200.0586 159.5555 14.69310094664281 LO-74 1 39440U 13066AA 26129.80982279 .00002857 00000-0 26829-3 0 9993 2 39440 97.8887 78.6418 0058669 153.0815 207.3469 14.93478578671269 AO-73 1 39444U 13066AE 26129.66847316 .00006551 00000-0 41264-3 0 9998 2 39444 97.8256 100.3309 0035822 337.5791 22.3869 15.08986896673853 DTUSAT-2 1 40030U 14033W 26129.79169176 .00005618 00000-0 30877-3 0 9992 2 40030 98.0873 125.0992 0008214 19.5690 340.5854 15.14517033646877 LILACSAT-2 1 40908U 15049K 26129.87916383 .00012818 00000-0 22863-3 0 9999 2 40908 97.4705 165.2937 0007924 46.9240 313.2673 15.50186193589810 Horyu-4 1 41340U 16012D 26129.76747986 .00129383 00000-0 74260-3 0 9994 2 41340 30.9893 356.5603 0005847 357.1247 2.9376 15.77249913564715 Lapan A3 1 41603U 16040E 26129.87469889 .00002814 00000-0 90853-4 0 9998 2 41603 97.1492 127.2887 0011401 144.5408 215.6595 15.32863644548941 CAS-2T 1 41847U 16066G 26129.79881520 .00000553 00000-0 87912-4 0 9997 2 41847 98.3825 205.9692 0340969 245.9613 110.5550 14.44587249499259 TechnoSat 1 42829U 17042E 26129.48284735 .00001615 00000-0 11860-3 0 9992 2 42829 97.4243 288.6312 0016635 222.1084 137.8866 15.04719652480883 AO-91 1 43017U 17073E 26129.56849457 .00007307 00000-0 32135-3 0 9995 2 43017 97.4764 357.5869 0154161 101.8257 260.0310 15.12012690459556 S-Net D 1 43186U 18014G 26129.72915557 .00003524 00000-0 18522-3 0 9992 2 43186 97.5387 34.7654 0009335 141.9509 218.2385 15.16310832452933 S-Net B 1 43187U 18014H 26129.73985920 .00003835 00000-0 20137-3 0 9995 2 43187 97.5392 34.7614 0010066 138.6995 221.5001 15.16280988452931 S-Net A 1 43188U 18014J 26129.72822404 .00003466 00000-0 18215-3 0 9996 2 43188 97.5402 34.9515 0009934 138.9928 221.2053 15.16317620452935 S-Net C 1 43189U 18014K 26129.67753353 .00003919 00000-0 20567-3 0 9993 2 43189 97.5420 34.9699 0011423 133.7911 226.4268 15.16271395451471 Ten-Koh 1 43677U 18084G 26129.77265330 .00000910 00000-0 72982-4 0 9993 2 43677 98.0781 320.5240 0007851 242.4269 117.6157 15.02772347410391 PO-101 1 43678U 18084H 26129.82187766 .00002433 00000-0 19931-3 0 9992 2 43678 98.1095 324.3883 0012172 303.7856 56.2207 15.00262496410460 QO-100 1 43700U 18090A 26129.54710226 .00000153 00000-0 00000 0 0 9997 2 43700 0.0032 79.5835 0001674 2.0413 8.5159 1.00273112 27280 MinXSS-2 1 43758U 18099A 26129.76344367 .00023783 00000-0 51487-3 0 9995 2 43758 97.4546 204.9989 0007804 55.3573 304.8410 15.44427248408195 AO-95 1 43770U 18099N 26129.65859137 .00008547 00000-0 33593-3 0 9992 2 43770 97.4407 190.0680 0010372 121.1404 239.0853 15.25876610407343 SNUSat 2 1 43782U 18099AA 26129.66311125 .00005462 00000-0 24718-3 0 9998 2 43782 97.4088 183.6511 0011905 75.5058 284.7498 15.21246787407177 SnugLite 1 43784U 18099AC 26129.80175013 .00008108 00000-0 31477-3 0 9990 2 43784 97.3898 184.4794 0004331 79.7727 280.4000 15.26340629407462 ITASat 1 1 43786U 18099AE 26129.67719530 .00005102 00000-0 24959-3 0 9993 2 43786 97.4058 181.9664 0014251 124.0716 236.1873 15.18558445407065 EAGLET 1 1 43790U 18099AJ 26129.68847520 .00003418 00000-0 19887-3 0 9992 2 43790 97.4259 180.3795 0012739 116.3594 243.8947 15.12642523406519 ESEO 1 43792U 18099AL 26129.66341137 .00001658 00000-0 12359-3 0 9996 2 43792 97.3995 168.6978 0013324 103.8641 256.4068 15.04121738406014 JO-97 1 43803U 18099AX 26129.64944578 .00012343 00000-0 39611-3 0 9998 2 43803 97.4153 192.3834 0006678 60.7161 299.4748 15.32438814407729 Suomi 100 1 43804U 18099AY 26129.69839852 .00008471 00000-0 31669-3 0 9994 2 43804 97.4213 190.2568 0011237 63.1431 297.0955 15.27534343407544 ISAT 1 43879U 18111D 26129.78684972 .00054888 00000-0 69689-3 0 9998 2 43879 97.5899 62.2548 0008477 89.9373 270.2855 15.59211307405172 UWE-4 1 43880U 18111E 26129.74016560 .00022244 00000-0 49161-3 0 9992 2 43880 97.5852 56.4350 0010718 101.4284 258.8167 15.43800580404842 Sparrow 1 43881U 18111F 26129.80795176 .00075846 00000-0 75792-3 0 9992 2 43881 97.6122 67.3159 0007576 112.9726 247.2333 15.65334822405357 Prox-1 1 44339U 19036A 26129.75392588 .00009355 00000-0 92433-3 0 9995 2 44339 23.9966 10.7879 0006446 308.2442 51.7477 14.89711716367737 Taurus 1 1 44530U 19059C 26129.83359683 .00004126 00000-0 67037-3 0 9994 2 44530 98.6395 292.3020 0009565 77.0056 283.2217 14.71683495353000 TO-108 1 44881U 19093C 26129.81025749 .00000406 00000-0 51890-4 0 9990 2 44881 97.7532 202.9770 0012754 208.1498 151.9030 14.86454582345714 RS-44 1 44909U 19096E 26129.69621575 .00000007 00000-0 -12850-4 0 9990 2 44909 82.5246 5.2859 0216555 234.2335 123.8461 12.79748171297426 SALSAT 1 46495U 20068K 26129.74245139 .00006126 00000-0 21853-3 0 9996 2 46495 97.8864 130.4857 0011631 80.5049 279.7504 15.29233018309480 CSS (TIANHE-1) 1 48274U 21035A 26129.64226727 .00017976 00000-0 20263-3 0 9998 2 48274 41.4637 196.4787 0004689 275.1899 84.8405 15.62092922287141 CUTE 1 49263U 21088D 26129.79962344 .00138523 00000-0 81907-3 0 9997 2 49263 97.4186 225.8734 0001148 290.2232 69.8911 15.77712550256474 TeikyoSat 4 1 49396U 21102B 26129.80394142 .00001181 00000-0 77601-4 0 9994 2 49396 97.3701 160.7778 0013635 68.6951 291.5732 15.09370351246936 Z-Sat 1 49399U 21102E 26129.83634858 .00003260 00000-0 16315-3 0 9995 2 49399 97.3357 166.3257 0017376 26.9267 333.2865 15.17973610247627 KOSEN 1 1 49402U 21102H 26129.59857323 .00005516 00000-0 21487-3 0 9999 2 49402 97.3222 172.5150 0013157 351.7326 8.3694 15.26306030248135 HO-113 1 50466U 21131B 26129.87352624 .00000288 00000-0 10275-3 0 9992 2 50466 98.4952 222.4749 0003616 196.6317 163.4754 14.41320080229599 SNUGLITE 2 1 52899U 22065F 26129.83329132 .00000712 00000-0 14412-3 0 9994 2 52899 98.2151 274.7447 0008408 137.8319 222.3531 14.64274692205389 UmKA 1 (RS40S) 1 57172U 23091G 26129.79454829 .00003965 00000-0 18503-3 0 9998 2 57172 97.5074 188.6475 0011355 250.3903 109.6107 15.20379748158174 CubeBel-2 (EU11S) 1 57175U 23091K 26129.82507294 .00007885 00000-0 28880-3 0 9994 2 57175 97.5071 192.7233 0008717 244.9836 115.0499 15.28263283158443 RS-38S 1 57189U 23091Z 26129.82587439 .00011223 00000-0 33452-3 0 9990 2 57189 97.5105 198.5773 0007369 195.7904 164.3110 15.34815691158800 SONATE-2 1 59112U 24043Q 26129.84065277 .00026028 00000-0 37444-3 0 9993 2 59112 97.5496 277.9815 0006090 344.4476 15.6590 15.56029401121920 GRBBeta 1 60237U 24128C 26129.85502329 .00002607 00000-0 18717-3 0 9991 2 60237 61.9914 350.7223 0045646 126.6578 233.8725 15.06324716100491 Curium One 1 60242U 24128H 26129.88408152 .00005912 00000-0 34812-3 0 9995 2 60242 61.9800 341.3729 0045359 122.9743 237.5725 15.11895539100664 ROBUSTA-3A 1 60243U 24128J 26129.82783051 .00005503 00000-0 33206-3 0 9996 2 60243 61.9877 343.8335 0046478 120.4344 240.1356 15.11075626100625 CatSat 1 60246U 24125J 26129.56414067 .00037265 00000-0 55753-3 0 9996 2 60246 97.2133 341.6839 0021817 327.4463 32.5445 15.54623365101383 HYPERVIEW-1G (RS66S) 1 61772U 24199AP 26129.84859453 .00067541 00000-0 61889-3 0 9992 2 61772 97.2952 7.8873 0007924 72.1255 288.0869 15.67527123128658 AO-123 1 61781U 24199AY 26129.84334078 .00005741 00000-0 17017-3 0 9991 2 61781 97.3053 358.8659 0015911 87.4897 272.8168 15.35112719128040 JINJUSat 1B 1 63210U 25052A 26129.69618972 .00011235 00000-0 36238-3 0 9991 2 63210 97.4040 26.4284 0002523 181.8229 178.3004 15.32318685 64204 NUSHSAT 1 1 63211U 25052B 26129.66735734 .00014797 00000-0 44489-3 0 9998 2 63211 97.4019 26.8421 0002229 178.9575 181.1673 15.34493107 64234 TEVEL2-4 1 63213U 25052D 26129.69298767 .00012689 00000-0 39678-3 0 9995 2 63213 97.3941 26.0540 0001174 182.4457 177.6780 15.33281084 64215 TEVEL2-5 1 63214U 25052E 26129.64414968 .00013060 00000-0 41029-3 0 9991 2 63214 97.3940 25.9634 0001177 181.7304 178.3935 15.33125548 64204 TEVEL2-6 1 63215U 25052F 26129.65554514 .00013258 00000-0 41695-3 0 9993 2 63215 97.3943 25.9596 0001228 191.1458 168.9757 15.33088188 64202 TEVEL2-1 1 63217U 25052H 26129.67184705 .00012607 00000-0 40271-3 0 9994 2 63217 97.3914 25.6442 0000707 222.1920 137.9267 15.32601342 64191 TEVEL2-3 1 63218U 25052J 26129.66776878 .00012767 00000-0 40718-3 0 9995 2 63218 97.3916 25.6576 0000673 222.0682 138.0508 15.32648307 64190 TEVEL2-2 1 63219U 25052K 26129.67233917 .00012778 00000-0 40806-3 0 9999 2 63219 97.3917 25.6466 0000686 225.3644 134.7542 15.32607550 64194 TEVEL2-9 1 63237U 25052AD 26129.66682437 .00011707 00000-0 39638-3 0 9995 2 63237 97.3981 25.0961 0004081 282.5598 77.5186 15.30735998 64133 TEVEL2-7 1 63238U 25052AE 26129.70074178 .00010919 00000-0 37295-3 0 9999 2 63238 97.3979 25.0611 0004165 282.2952 77.7822 15.30471471 64139 TEVEL2-8 1 63239U 25052AF 26129.64318294 .00011424 00000-0 39028-3 0 9991 2 63239 97.3981 24.9821 0004126 283.5672 76.5109 15.30451861 64129 HYDRA-W 1 63490U 25052BL 26113.93882235 .05662091 24406-5 29537-2 0 9997 2 63490 97.3690 18.2798 0008685 203.5899 156.4993 16.20186780 62336 HADES-ICM (SO-125) 1 63492U 25052BN 26129.70564068 .00570308 12819-3 18595-2 0 9991 2 63492 97.3748 33.5239 0008182 165.6972 194.4534 15.90607553 64713 SPIRONE 1 66657U 25274H 26129.72992718 .00001354 00000-0 13419-3 0 9999 2 66657 97.7466 59.5775 0013130 137.0426 223.1821 14.93385709 24486 K-HERO 1 66660U 25274L 26129.74538236 .00001690 00000-0 16439-3 0 9994 2 66660 97.7482 59.7255 0014947 141.4971 218.7319 14.93814012 24491 SNUGLITE-III DURI 1 66661U 25274M 26129.80138008 .00001139 00000-0 11232-3 0 9999 2 66661 97.7478 59.7998 0015522 142.5848 217.6456 14.93867835 24509 SilverSat 1 66909U 98067XV 26113.44966717 .07226154 12288-4 11979-2 0 9998 2 66909 51.6027 190.0749 0007952 333.4666 26.5949 16.32457272 22308 SAKHACUBE-CHOLBON 1 67290U 25313AU 26129.69700507 .00007556 00000-0 31265-3 0 9995 2 67290 97.3934 205.2327 0010790 127.8634 232.3581 15.24180893 20119 RS95S (QMR-KWT-2) 1 67291U 25313AV 26129.78212387 .00010182 00000-0 40664-3 0 9992 2 67291 97.3934 205.4216 0010550 127.1520 233.0683 15.25284099 20137 Ten-Koh2 1 68261U 25241B 26129.44879677 .00004961 00000-0 21942-3 0 9990 2 68261 51.6522 143.9368 0006141 22.4215 337.7031 15.23397211 9005 JACK-002 1 68417U 26067B 26129.82573747 .00005198 00000-0 25222-3 0 9999 2 68417 97.4541 88.9121 0003899 72.4772 287.6888 15.18915386 6128 DISCO 2 1 68431U 26067R 26129.83752639 .00005605 00000-0 27483-3 0 9999 2 68431 97.4579 88.9164 0004158 111.2304 248.9374 15.18515726 6128 HADES-SA (SpinnyONE) 1 68446U 26067AG 26129.33929627 .00013653 00000-0 67795-3 0 9995 2 68446 97.4389 88.2651 0006418 188.4791 171.6336 15.17781023 6038 PARUS-6U1 1 68456U 26067AS 26129.80636981 .00003900 00000-0 20006-3 0 9994 2 68456 97.4529 88.7797 0005464 177.2961 182.8303 15.17117251 6119 SAL-E 1 68458U 26067AU 26129.80591911 .00004995 00000-0 25452-3 0 9994 2 68458 97.4455 88.7430 0005383 186.2627 173.8540 15.17215378 6114 FSI-SAT 2 1 68792U 26088A 26129.36725567 .00004165 00000-0 28545-3 0 9990 2 68792 97.5019 279.6220 0013598 237.3681 122.6235 15.06513894 2442 OrigamiSat 2 1 68795U 26088D 26129.41776424 .00002940 00000-0 19481-3 0 9995 2 68795 97.5033 279.7101 0015144 208.2977 151.7430 15.07980600 2459 ARICA 2 1 68796U 26088E 26129.68202231 .00003369 00000-0 22188-3 0 9999 2 68796 97.5020 279.9661 0015205 205.4700 154.5781 15.08105250 2495 WASEDA-SAT-ZERO-II 1 68797U 26088F 26129.41603844 .00005097 00000-0 33277-3 0 9997 2 68797 97.5019 279.7075 0015171 206.2108 153.8354 15.08187910 2451 MANGARO-II-Piscus 1 68798U 26088G 26129.67770263 .00002867 00000-0 18723-3 0 9997 2 68798 97.5028 279.9741 0018481 209.0197 151.0006 15.08492153 2496 IO-86 1 40931U 25360.30710720 .00000000 00000-0 12800-3 0 00 2 40931 6.0006 332.5373 0012733 338.8432 8.1437 14.79075515 01 LILIUM-4 1 71922C 26067AC 26089.50133053 -.00014632 00000 0 -74472-3 0 04 2 71922 97.4497 49.1617 0004341 5.9603 355.7042 15.16896692 16